, AK

(GMT )
Eureka

Weather History for PAZK - October, 2011

Change the Weather History Date:

Sunday, October 9, 2011

  Actual Average Record
Temperature  
Mean Temperature 30 °F -  
Max Temperature 33 °F 28 °F 42 °F (2006)
Min Temperature 28 °F 19 °F 10 °F (2008)
Degree Days  
Heating Degree Days 34    
Moisture  
Dew Point 26 °F    
Average Humidity 85    
Maximum Humidity 100    
Minimum Humidity 70    
Precipitation  
Precipitation 0.00 in - - ()
Sea Level Pressure  
Sea Level Pressure 29.49 in    
Wind  
Wind Speed 3 mph (West)    
Max Wind Speed 9 mph    
Max Gust Speed -    
Visibility 10 miles    
Events      
Averages and records for this station are not official NWS values.
T = Trace of Precipitation, MM = Missing Value Source: NWS Daily Summary

Daily Weather History Graph

Daily Weather History Graph

Search for Another Location

Airport or City:

Astronomy

Oct. 09, 2011 Rise Set
Actual Time 8:16 AM AKDT 6:53 PM AKDT
Civil Twilight 7:32 AM AKDT 7:38 PM AKDT
Nautical Twilight 6:40 AM AKDT 8:29 PM AKDT
Astronomical Twilight 5:47 AM AKDT 9:22 PM AKDT
Moon 5:49 PM AKDT (10/9) 5:46 AM AKDT (10/9)
Length of Visible Light 12h 06m
Length of Day
10h 37m
Waxing Gibbous, 95% of the Moon is Illuminated
Oct 9
Waxing Gibbous
Oct 11
Full
Oct 19
Last Quarter
Oct 26
New
Nov 2
First Quarter

Hourly Weather History & Observations

Time (AKDT) Temp. Windchill Dew Point Humidity Pressure Visibility Wind Dir Wind Speed Gust Speed Precip Events Conditions
12:16 AM 30.2 °F - 28.4 °F 93% 29.53 in 4.0 mi Calm Calm - N/A   Overcast
12:36 AM 28.4 °F 23.3 °F 28.4 °F 100% 29.52 in 10.0 mi SW 4.6 mph - N/A   Overcast
12:56 AM 28.4 °F 23.3 °F 28.4 °F 100% 29.52 in 8.0 mi WSW 4.6 mph - N/A   Overcast
1:16 AM 28.4 °F 23.3 °F 28.4 °F 100% 29.52 in 8.0 mi WSW 4.6 mph - N/A   Overcast
1:36 AM 28.4 °F 21.2 °F 28.4 °F 100% 29.52 in 10.0 mi West 6.9 mph - N/A   Overcast
1:56 AM 28.4 °F 22.2 °F 28.4 °F 100% 29.51 in 5.0 mi West 5.8 mph - N/A   Mostly Cloudy
2:16 AM 28.4 °F 21.2 °F 28.4 °F 100% 29.51 in 5.0 mi West 6.9 mph - N/A   Overcast
2:36 AM 28.4 °F 22.2 °F 28.4 °F 100% 29.51 in 10.0 mi West 5.8 mph - N/A   Overcast
2:56 AM 28.4 °F 20.4 °F 28.4 °F 100% 29.50 in 10.0 mi West 8.1 mph - N/A   Overcast
3:16 AM 28.4 °F 19.7 °F 28.4 °F 100% 29.50 in 10.0 mi West 9.2 mph - N/A   Overcast
3:36 AM 28.4 °F 21.2 °F 28.4 °F 100% 29.50 in 10.0 mi WSW 6.9 mph - N/A   Overcast
3:56 AM 28.4 °F 22.2 °F 26.6 °F 93% 29.50 in 10.0 mi WSW 5.8 mph - N/A   Overcast
4:16 AM 28.4 °F 20.4 °F 26.6 °F 93% 29.49 in 10.0 mi West 8.1 mph - N/A   Overcast
4:36 AM 28.4 °F 23.3 °F 28.4 °F 100% 29.49 in 10.0 mi WSW 4.6 mph - N/A   Overcast
4:56 AM 28.4 °F 24.6 °F 26.6 °F 93% 29.49 in 10.0 mi West 3.5 mph - N/A   Overcast
5:16 AM 28.4 °F 24.6 °F 26.6 °F 93% 29.49 in 10.0 mi West 3.5 mph - N/A   Overcast
5:36 AM 30.2 °F - 26.6 °F 86% 29.48 in 10.0 mi Calm Calm - N/A   Overcast
5:56 AM 30.2 °F - 26.6 °F 86% 29.48 in 10.0 mi Calm Calm - N/A   Overcast
6:16 AM 30.2 °F - 26.6 °F 86% 29.48 in 10.0 mi Calm Calm - N/A   Overcast
6:36 AM 30.2 °F - 26.6 °F 86% 29.48 in 10.0 mi Calm Calm - N/A   Overcast
6:56 AM 30.2 °F - 26.6 °F 86% 29.48 in 10.0 mi Calm Calm - N/A   Overcast
7:16 AM 30.2 °F - 26.6 °F 86% 29.47 in 10.0 mi Calm Calm - N/A   Overcast
7:36 AM 30.2 °F - 26.6 °F 86% 29.47 in 10.0 mi Calm Calm - N/A   Overcast
7:56 AM 30.2 °F - 24.8 °F 80% 29.47 in 10.0 mi Calm Calm - N/A   Overcast
8:16 AM 30.2 °F - 24.8 °F 80% 29.47 in 10.0 mi Calm Calm - N/A   Overcast
8:36 AM 30.2 °F 26.7 °F 24.8 °F 80% 29.47 in 10.0 mi NNE 3.5 mph - N/A   Overcast
8:56 AM 30.2 °F - 24.8 °F 80% 29.47 in 10.0 mi Calm Calm - N/A   Overcast
9:16 AM 30.2 °F 26.7 °F 24.8 °F 80% 29.47 in 10.0 mi North 3.5 mph - N/A   Overcast
9:36 AM 30.2 °F - 24.8 °F 80% 29.48 in 10.0 mi Calm Calm - N/A   Overcast
9:56 AM 30.2 °F - 24.8 °F 80% 29.48 in 10.0 mi Calm Calm - N/A   Overcast
10:16 AM 30.2 °F - 24.8 °F 80% 29.48 in 10.0 mi Calm Calm - N/A   Overcast
10:36 AM 32.0 °F - 24.8 °F 75% 29.48 in 10.0 mi Calm Calm - N/A   Overcast
10:56 AM 30.2 °F - 24.8 °F 80% 29.48 in 10.0 mi Calm Calm - N/A   Overcast
11:16 AM 32.0 °F 27.5 °F 26.6 °F 80% 29.48 in 10.0 mi NE 4.6 mph - N/A   Overcast
11:36 AM 30.2 °F 23.4 °F 24.8 °F 80% 29.49 in 10.0 mi East 6.9 mph - N/A   Overcast
11:56 AM 30.2 °F 25.4 °F 24.8 °F 80% 29.49 in 10.0 mi ESE 4.6 mph - N/A   Overcast
12:16 PM 30.2 °F 26.7 °F 26.6 °F 86% 29.49 in 10.0 mi SE 3.5 mph - N/A   Overcast
12:36 PM 30.2 °F 26.7 °F 26.6 °F 86% 29.50 in 10.0 mi SE 3.5 mph - N/A   Overcast
12:56 PM 30.2 °F - 26.6 °F 86% 29.50 in 10.0 mi Calm Calm - N/A   Overcast
1:16 PM 32.0 °F - 26.6 °F 80% 29.50 in 10.0 mi Calm Calm - N/A   Overcast
1:36 PM 32.0 °F - 26.6 °F 80% 29.49 in 10.0 mi Calm Calm - N/A   Overcast
1:56 PM 32.0 °F - 26.6 °F 80% 29.50 in 10.0 mi Calm Calm - N/A   Overcast
2:16 PM 32.0 °F 27.5 °F 26.6 °F 80% 29.50 in 10.0 mi East 4.6 mph - N/A   Overcast
2:36 PM 33.8 °F - 26.6 °F 75% 29.50 in 10.0 mi Calm Calm - N/A   Overcast
2:56 PM 33.8 °F 30.8 °F 24.8 °F 70% 29.50 in 10.0 mi ESE 3.5 mph - N/A   Overcast
3:16 PM 32.0 °F - 24.8 °F 75% 29.50 in 10.0 mi Calm Calm - N/A   Overcast
3:36 PM 33.8 °F - 26.6 °F 75% 29.50 in 10.0 mi Calm Calm - N/A   Overcast
3:56 PM 33.8 °F 30.8 °F 26.6 °F 75% 29.50 in 10.0 mi ENE 3.5 mph - N/A   Overcast
4:16 PM 32.0 °F 27.5 °F 26.6 °F 80% 29.50 in 9.0 mi ENE 4.6 mph - N/A   Overcast
4:36 PM 32.0 °F - 24.8 °F 75% 29.50 in 7.0 mi Calm Calm - N/A   Overcast
4:56 PM 33.8 °F 30.8 °F 24.8 °F 70% 29.50 in 10.0 mi North 3.5 mph - N/A   Overcast
5:16 PM 33.8 °F - 26.6 °F 75% 29.50 in 10.0 mi Calm Calm - N/A   Overcast
5:36 PM 32.0 °F - 26.6 °F 80% 29.51 in 10.0 mi Calm Calm - N/A   Overcast
5:56 PM 32.0 °F - 24.8 °F 75% 29.51 in 10.0 mi Calm Calm - N/A   Overcast
6:16 PM 32.0 °F - 24.8 °F 75% 29.51 in 10.0 mi Calm Calm - N/A   Overcast
6:36 PM 32.0 °F - 24.8 °F 75% 29.51 in 10.0 mi Calm Calm - N/A   Mostly Cloudy
6:56 PM 30.2 °F - 24.8 °F 80% 29.51 in 10.0 mi Calm Calm - N/A   Partly Cloudy
7:16 PM 30.2 °F - 24.8 °F 80% 29.51 in 10.0 mi Calm Calm - N/A   Clear
7:36 PM 30.2 °F - 24.8 °F 80% 29.51 in 10.0 mi Calm Calm - N/A   Clear
7:56 PM 28.4 °F - 24.8 °F 86% 29.52 in 10.0 mi Calm Calm - N/A   Clear
8:16 PM 28.4 °F - 24.8 °F 86% 29.52 in 10.0 mi Calm Calm - N/A   Clear
8:36 PM 28.4 °F - 24.8 °F 86% 29.52 in 10.0 mi Calm Calm - N/A   Clear
8:56 PM 28.4 °F 24.6 °F 26.6 °F 93% 29.53 in 10.0 mi North 3.5 mph - N/A   Mostly Cloudy
9:16 PM 28.4 °F - 24.8 °F 86% 29.53 in 10.0 mi Calm Calm - N/A   Overcast
9:36 PM 28.4 °F - 24.8 °F 86% 29.53 in 10.0 mi Calm Calm - N/A   Overcast
9:56 PM - - - N/A% 29.52 in - North 3.5 mph - N/A   Unknown
10:16 PM 30.2 °F - 26.6 °F 86% 29.53 in 10.0 mi Calm Calm - N/A   Overcast
10:36 PM 30.2 °F - 24.8 °F 80% 29.53 in 10.0 mi Calm Calm - N/A   Overcast
11:16 PM 28.4 °F 23.3 °F 24.8 °F 86% 29.54 in 10.0 mi NE 4.6 mph - N/A   Overcast
11:36 PM 28.4 °F 23.3 °F 23.0 °F 80% 29.54 in 10.0 mi East 4.6 mph - N/A   Overcast
11:56 PM 28.4 °F 23.3 °F 23.0 °F 80% 29.54 in 10.0 mi ENE 4.6 mph - N/A   Overcast